Voltar ao catálogo

STARLINK-2481

AtivoComunicaçõesVLEO
NORAD 48138·PAYLOAD·🇺🇸 United States

Lançado Apr 7, 2021 de Cape Canaveral Space Force Station

Loading…

Próximas Passagens (próximas 24 horas)

TLE

AtualizadoSource: CelesTrak SupGP

Época: Sep 15, 2026, 02:42 UTC

1 48138C 21027AY  26258.11298611  .00071936  00000+0  23116-2 0  2586
2 48138  53.1607   6.2272 0001096  75.1932 299.8099 15.31690115    19

Acompanhe STARLINK-2481 em tempo real com AllMySat

Download on the App Store